Location: Bern�tre
(50.1974°N, 2.0915°E)
Time: 09:30:24
(UTC+00:00)

Cosmos 1975 - Pass Details

Date: 18 September 2020
Orbit: 540 x 563 km, 82.5° (Epoch: 27 October)

Event Time Altitude Azimuth Distance (km) Brightness Sun altitude
Rises 18:44:41 0° 189° (S) 2,744 6.3 -8.3°
Reaches altitude 10° 18:46:51 10° 189° (S) 1,852 5.5 -8.6°
Maximum altitude 18:50:56 88° 274° (W) 570 2.9 -9.2°
Drops below altitude 10° 18:55:03 10° 10° (N) 1,863 5.6 -9.9°
Sets 18:57:14 0° 10° (N) 2,761 6.5 -10.2°
